Погода в Шымкенте

Погода в Шымкенте : погода сейчас, прогноз погоды и архив. Всё, что Вы хотите узнать о погоде в Шымкенте!

Поиск расширенной информации на нашем сайте:

Другие новости

Новости СМИ2

Главная страница сайта

Новости сайта

03.07.2017

Напоминаем, что на нашем специализированном сайте Метеоцентр.Азия вы можете получить высокодетализированные автоматические прогнозы погоды по пунктам России, СНГ и мира в авиационном формате (включающие направление и скорость ветра, видимость, явления погоды, количество и форму облачности, нижнюю и верхнюю границу облачности).


Погода в Шымкенте - сегодня

Время (UTC), дата Ветер
(°,м/с) 
Видим.   Явления Облачность Т
(°С)
Тd
(°С)
f(%) Тe
(°С)
Pmin
(гПа)
dP
(гПа)
Po
(мм)
O2
(г/м3)
Тmin Tmax R s Состояние
почвы
06 17.06.18 280 (З) 20000 м    1/1 600 м 
[Cu med, cong]
+29.6 +7.6 25 +30  1001.1  -0.3  702  254  +15.8         
09 17.06.18 230 (ЮЗ) 20000 м    3/3 600 м 
[Cu med, cong]
+31.1 +7 22 +31  999.8  -0.9  701  252           
12 17.06.18 240 (ЮЗ) 20000 м    1/1 600 м 
[Cu med, cong]
+32 +4.1 17 +32  998.9  -0.7  701  252           
15 17.06.18 тихо ()   20000 м    ясно 
+27.2 +7.1 28 +27  1000.4  0.4  701  256    +32.6       
18 17.06.18 тихо ()   н/о    ясно 
+22.7 +8.4 40 +23  1002.1  0.7  701  259    +32.6       
21 17.06.18 тихо ()   н/о    ясно 
+21.2 +7.7 42 +21  1002  -0.4  701  261           
00 18.06.18 120 (ЮВ) 20000 м    ясно 
+20.3 +7.7 44 +20  1002.1  -0.1  701  262           
06 18.06.18 200 (Ю) 20000 м    3/0 верхняя 
[Ci fib]
+32.2 +3.6 16 +32  1000  -0.2  701  252  +16.5         
09 18.06.18 050 (СВ) 20000 м    8/3 600 м средняя, верхняя 
[Cu med, cong|Ac trans|Ci ing]
+33.1 +2.1 14 +33  999  -0.8  701  251           
12 18.06.18 240 (ЮЗ) 20000 м    8/6 600 м средняя, верхняя 
[Sc|Ac trans|Ci ing]
+32.3 +1.1 14 +32  998.9  -0.3  701  252           
15 18.06.18 тихо ()   20000 м    8/6 600 м средняя, верхняя 
[Sc|Ac trans|Ci ing]
+26.6 +7.6 30 +27  1000.1  0.1  701  256    +34.5       
18 18.06.18 290 (З) н/о    6/0 верхняя 
[Ci ing]
+22.6 +6.4 35 +23  1001.6  0.5  701  260    +34.5       
21 18.06.18 270 (З) н/о    8/0 средняя, верхняя 
[Ac trans|Ci ing]
+19 +7.1 46 +21  1001.9  -0.5  701  263           
00 19.06.18 090 (В) 20000 м    8/0 верхняя 
[Ci ing]
+18.8 +6.8 46 +20  1001.9  701  263           
06 19.06.18 210 (ЮЗ) 20000 м    8/3 600 м верхняя 
[Cu med, cong|Ci ing]
+32.9 +6.4 19 +33  998.6  -0.2  701  251  +17.4         
09 19.06.18 070 (В) 20000 м  в посл. час ливневой дождь  9/6 600 м кучево-дожд., средняя 
[Cb cap|Ac trans]
+31.9 +5.3 19 +32  998.8  -0.1  701  252           
21 19.06.18 250 (З) н/о    ясно 
+22.3 +7 37 +22  1004.3  -0.5  703  261           
00 20.06.18 тихо ()   20000 м    9/9 600 м кучево-дожд. 
[Cb cap]
+18.3 +9.4 56 +20  1006.8  1.5  704  264           
09 20.06.18 070 (В) 20000 м    6/6 600 м кучево-дожд. 
[Cb cap]
+29.1 +10 30 +31  1005.9  -0.5  705  255           
12 20.06.18 160 (Ю) 20000 м    6/6 600 м кучево-дожд. 
[Cb cap]
+31.1 +4.8 19 +31  1005.6  705  254           
18 20.06.18 150 (ЮВ) н/о    ясно 
+21.5 +3.6 31 +22  1010.2  1.5  707  263    +31.5  0.0     
21 20.06.18 тихо ()   н/о    ясно 
+18.5 +5.5 42 +19  1010.6  -0.2  707  266           
00 21.06.18 140 (ЮВ) 20000 м    ясно 
+16 +5.1 48 +17  1011.3  707  268           
06 21.06.18 230 (ЮЗ) 20000 м    1/1 600 м 
[Cu med, cong]
+30 +3.8 19 +30  1008.7  -0.3  707  256  +13.9         
09 21.06.18 270 (З) 20000 м    3/1 600 м верхняя 
[Cu med, cong|Ci ing]
+31.3 +1.1 14 +31  1001.7  -1.3  706  255           
Время (UTC), дата Ветер
(°,м/с) 
Видим.   Явления Облачность Т
(°С)
Тd
(°С)
f(%) Тe
(°С)
Pmin
(гПа)
dP
(гПа)
Po
(мм)
O2
(г/м3)
Тmin Tmax R s Состояние
почвы

Для получения пояснительной информации подведите курсор к названию столбца.

ПОГОДА в Шымкенте - архив

Всё, что Вы хотите узнать о погоде в Шымкенте - удобно и подробно!

Выберите нужную дату (начиная с 1 января 2015* года) и нажмите кнопку "Найти".
Будут отображены архивные сводки погоды по пункту Шымкент, начиная с указанной даты.


Отображать данные в формате CSV (для использования в таблицах Excel)


Внимание! Наш архив погоды предназначен исключительно для личного некоммерческого использования в познавательных целях. Если Вам необходимы официальные справки о состоянии погоды (для производственных, юридических, коммерческих и т.п. целей), обращайтесь в органы Росгидромета.

*Примечание: данная дата относится к архиву по метеостанциям СССР (Россия, СНГ, Балтия).
Архив по метеостанциям Зарубежной Европы и Азии (кроме Китая) хранится 10 дней, по другим регионам земного шара (Китай, Африка, Америка, Австралия, Океания) - 1 день.

Шымкент - район местоположения метеостанции


Название, широта, долгота, высота метеостанции:
Шымкент (город) 42.3°ш. 69.7°д. 604 м над ур. моря [Казахстан]

Дополнительная информация

В oтличие oт бoльшинства пoгoдных сайтoв мы публикуем пoдрoбную метеoинфoрмацию в детальнoм прoфессиoнальнoм фoрмате.

Характеристики температуры и влажнoсти вoздуха измеряются на высoте 2 м в тени вдали oт зданий и деревьев.
Скoрoсть ветра измеряется на высoте 10 м (на урoвне рoста челoвека скoрoсть ветра ниже в 1.5-2 раза). Если метеoстанция нахoдится в гoрoде или в лесу, тo скoрoсть ветра занижена на 2-4 м/с пo сравнению с oткрытым местoм. Скoрoсть ветра над акватoриями крупных рек и oзёр, а также на вершинах хoлмoв на 2-5 м/с выше, чем в oбычных услoвиях.
Атмoсфернoе давление в разных тoчках местнoсти мoжет значительнo oтличаться oт давления на метеoстанции, в зависимoсти oт услoвий рельефа (при пoдъёме на 10 м давление пoнижается примернo на 1 мм рт.ст.).